Weather History for St. Joseph, MO

Change the Weather History Date:

Saturday, January 12, 2013

  Actual Average Record
Temperature  
Mean Temperature 28 °F 27 °F  
Max Temperature 37 °F 37 °F 66 °F (1960)
Min Temperature 19 °F 17 °F -25 °F (1974)
Degree Days  
Heating Degree Days 37 38  
Month to date heating degree days 459  
Since 1 July heating degree days 2672  
Cooling Degree Days 0 0  
Month to date cooling degree days 0  
Year to date cooling degree days 0  
Moisture  
Dew Point 16 °F    
Average Humidity 64    
Maximum Humidity 81    
Minimum Humidity 51    
Precipitation  
Precipitation 0.00 in 0.01 in 0.32 in (1966)
Month to date precipitation 0.21  
Year to date precipitation 0.21  
Sea Level Pressure  
Sea Level Pressure 30.03 in    
Wind  
Wind Speed 16 mph (NW)    
Max Wind Speed 22 mph    
Max Gust Speed 31 mph    
Visibility 10 miles    
Events      
T = Trace of Precipitation, MM = Missing Value Source: NWS Daily Summary

Daily Weather History Graph

Daily Weather History Graph

Search for Another Location

Airport:

Trip Planner

Search our weather history database for the weather conditions in past years. The results will help you decide how hot, cold, wet, or windy it might be!

Date:

Astronomy

Jan. 12, 2013 Rise Set
Actual Time 7:39 AM CST 5:16 PM CST
Civil Twilight 7:10 AM CST 5:46 PM CST
Nautical Twilight 6:36 AM CST 6:19 PM CST
Astronomical Twilight 6:04 AM CST 6:52 PM CST
Moon 7:59 AM CST (1/12) 6:46 PM CST (1/12)
Length of Visible Light 10h 36m
Length of Day
9h 36m
New Moon, 1% of the Moon is Illuminated
Jan 12
New Moon
Jan 18
First Quarter
Jan 26
Full
Feb 3
Last Quarter
Feb 10
New

Hourly Weather History & Observations

Time (CST) Temp. Windchill Dew Point Humidity Pressure Visibility Wind Dir Wind Speed Gust Speed Precip Events Conditions
12:53 AM 37.0 °F 26.4 °F 30.9 °F 79% 29.81 in 10.0 mi WNW 20.7 mph 26.5 mph N/A   Overcast
1:14 AM 35.6 °F 24.2 °F 30.2 °F 81% 29.82 in 10.0 mi WNW 21.9 mph 27.6 mph N/A   Overcast
1:27 AM 35.6 °F 24.2 °F 28.4 °F 75% 29.84 in 10.0 mi WNW 21.9 mph 31.1 mph N/A   Mostly Cloudy
1:44 AM 33.8 °F 23.2 °F 26.6 °F 75% 29.86 in 10.0 mi WNW 17.3 mph 28.8 mph N/A   Scattered Clouds
1:53 AM 33.1 °F 23.0 °F 27.0 °F 78% 29.89 in 10.0 mi WNW 15.0 mph 20.7 mph N/A   Scattered Clouds
2:53 AM 30.9 °F 19.8 °F 21.9 °F 69% 29.94 in 10.0 mi NW 16.1 mph - N/A   Clear
3:53 AM 30.0 °F 21.7 °F 21.9 °F 72% 29.97 in 10.0 mi NW 9.2 mph - N/A   Scattered Clouds
4:03 AM 30.2 °F 22.6 °F 21.2 °F 69% 29.96 in 10.0 mi NW 8.1 mph - N/A   Mostly Cloudy
4:34 AM 30.2 °F 19.8 °F 21.2 °F 69% 29.97 in 10.0 mi NW 13.8 mph - N/A   Scattered Clouds
4:53 AM 28.0 °F 18.6 °F 19.9 °F 72% 29.99 in 10.0 mi WNW 10.4 mph - N/A   Partly Cloudy
5:53 AM 27.0 °F 15.6 °F 16.0 °F 63% 30.01 in 10.0 mi NW 13.8 mph - N/A   Clear
6:53 AM 26.1 °F 15.6 °F 17.1 °F 69% 30.03 in 10.0 mi NW 11.5 mph - N/A   Clear
7:53 AM 25.0 °F 14.2 °F 12.9 °F 60% 30.08 in 10.0 mi NW 11.5 mph - N/A   Clear
8:53 AM 26.1 °F 15.6 °F 12.9 °F 58% 30.09 in 10.0 mi NNW 11.5 mph - N/A   Clear
9:53 AM 27.0 °F 15.2 °F 14.0 °F 58% 30.10 in 10.0 mi NW 15.0 mph - N/A   Scattered Clouds
10:53 AM 28.0 °F 18.1 °F 15.1 °F 58% 30.12 in 10.0 mi NW 11.5 mph - N/A   Scattered Clouds
11:53 AM 27.0 °F 16.7 °F 12.9 °F 56% 30.08 in 10.0 mi WNW 11.5 mph - N/A   Mostly Cloudy
12:53 PM 28.0 °F 17.0 °F 12.0 °F 51% 30.08 in 10.0 mi WNW 13.8 mph - N/A   Mostly Cloudy
1:53 PM 26.1 °F 14.0 °F 10.9 °F 53% 30.07 in 10.0 mi North 15.0 mph - N/A   Overcast
2:53 PM 25.0 °F 13.6 °F 10.9 °F 55% 30.08 in 10.0 mi NNW 12.7 mph - N/A   Overcast
3:53 PM 25.0 °F 14.2 °F 10.0 °F 53% 30.09 in 10.0 mi NNW 11.5 mph - N/A   Mostly Cloudy
4:53 PM 24.1 °F 12.5 °F 10.0 °F 55% 30.09 in 10.0 mi North 12.7 mph - N/A   Overcast
5:53 PM 25.0 °F 19.3 °F 10.9 °F 55% 30.16 in 10.0 mi NNW 4.6 mph - N/A   Overcast
6:53 PM 25.0 °F 12.6 °F 10.9 °F 55% 30.08 in 10.0 mi NNW 15.0 mph - N/A   Overcast
7:53 PM 24.1 °F 12.5 °F 10.9 °F 57% 30.12 in 10.0 mi NNW 12.7 mph - N/A   Overcast
8:53 PM 23.0 °F 9.2 °F 10.9 °F 60% 30.11 in 10.0 mi NNW 17.3 mph - N/A   Overcast
9:53 PM 21.9 °F 7.3 °F 10.0 °F 60% 30.11 in 10.0 mi NNW 18.4 mph - N/A   Overcast
10:53 PM 19.9 °F 5.7 °F 10.0 °F 65% 30.13 in 10.0 mi NNW 16.1 mph - N/A   Scattered Clouds
11:53 PM 19.0 °F 5.0 °F 9.0 °F 65% 30.15 in 10.0 mi NNW 15.0 mph - N/A   Overcast